Time,TemperatureF,DewpointF,PressureIn,WindDirection,WindDirectionDegrees,WindSpeedMPH,WindSpeedGustMPH,Humidity,HourlyPrecipIn,Conditions,Clouds,dailyrainin,SoftwareType,DateUTC
2013-03-26 00:03:00,54.0,41.0,30.04,WNW,290,6.0,9.0,62,99.99,,,-99.99,,2013-03-26 04:03:00,
2013-03-26 00:12:00,54.0,41.0,30.04,WNW,290,6.0,9.0,62,99.99,,,-99.99,,2013-03-26 04:12:00,
2013-03-26 00:23:00,55.0,42.0,30.06,WNW,288,7.0,12.0,62,99.99,,,-99.99,,2013-03-26 04:23:00,
2013-03-26 00:33:00,55.0,42.0,30.05,NW,304,8.0,14.0,62,99.99,,,-99.99,,2013-03-26 04:33:00,
2013-03-26 00:43:00,55.0,42.0,30.05,NW,304,8.0,14.0,62,99.99,,,-99.99,,2013-03-26 04:43:00,
2013-03-26 00:53:00,56.0,43.0,30.05,NW,315,7.0,12.0,61,99.99,,,-99.99,,2013-03-26 04:53:00,
2013-03-26 01:02:00,56.0,43.0,30.05,NW,322,6.0,13.0,61,99.99,,,-99.99,,2013-03-26 05:02:00,
2013-03-26 01:12:00,56.0,43.0,30.05,NW,322,6.0,13.0,61,99.99,,,-99.99,,2013-03-26 05:12:00,
2013-03-26 01:22:00,56.0,43.0,30.06,West,274,7.0,10.0,61,99.99,,,-99.99,,2013-03-26 05:22:00,
2013-03-26 01:32:00,56.0,43.0,30.06,WNW,301,6.0,10.0,61,99.99,,,-99.99,,2013-03-26 05:32:00,
2013-03-26 01:42:00,56.0,43.0,30.06,WNW,301,6.0,10.0,61,99.99,,,-99.99,,2013-03-26 05:42:00,
2013-03-26 01:52:00,56.0,43.0,30.06,NW,321,6.0,13.0,62,99.99,,,-99.99,,2013-03-26 05:52:00,
2013-03-26 02:02:00,56.0,43.0,30.06,NW,321,5.0,10.0,62,99.99,,,-99.99,,2013-03-26 06:02:00,
2013-03-26 02:12:00,56.0,43.0,30.06,NW,321,5.0,10.0,62,99.99,,,-99.99,,2013-03-26 06:12:00,
2013-03-26 02:22:00,57.0,44.0,30.07,NW,316,5.0,10.0,61,99.99,,,-99.99,,2013-03-26 06:22:00,
2013-03-26 02:32:00,56.0,43.0,30.06,NNW,329,4.0,10.0,61,99.99,,,-99.99,,2013-03-26 06:32:00,
2013-03-26 02:42:00,56.0,43.0,30.06,NNW,329,4.0,10.0,61,99.99,,,-99.99,,2013-03-26 06:42:00,
2013-03-26 02:52:00,57.0,44.0,30.05,NW,323,3.0,6.0,62,99.99,,,-99.99,,2013-03-26 06:52:00,
2013-03-26 03:02:00,56.0,44.0,30.05,NNW,332,2.0,5.0,63,99.99,,,-99.99,,2013-03-26 07:02:00,
2013-03-26 03:12:00,56.0,44.0,30.05,NNW,332,2.0,5.0,63,99.99,,,-99.99,,2013-03-26 07:12:00,
2013-03-26 03:22:00,56.0,44.0,30.06,NNW,333,2.0,5.0,64,99.99,,,-99.99,,2013-03-26 07:22:00,
2013-03-26 03:33:00,55.0,43.0,30.05,NW,307,4.0,9.0,65,99.99,,,-99.99,,2013-03-26 07:33:00,
2013-03-26 03:42:00,55.0,43.0,30.05,NW,307,4.0,9.0,65,99.99,,,-99.99,,2013-03-26 07:42:00,
2013-03-26 03:53:00,55.0,43.0,30.05,North,359,3.0,6.0,64,99.99,,,-99.99,,2013-03-26 07:53:00,
2013-03-26 04:02:00,54.0,40.0,30.05,North,356,5.0,10.0,58,99.99,,,-99.99,,2013-03-26 08:02:00,
2013-03-26 04:12:00,54.0,40.0,30.05,North,356,5.0,10.0,58,99.99,,,-99.99,,2013-03-26 08:12:00,
2013-03-26 04:22:00,54.0,38.0,30.07,NE,48,4.0,9.0,55,99.99,,,-99.99,,2013-03-26 08:22:00,
2013-03-26 04:32:00,54.0,37.0,30.06,NNE,17,7.0,15.0,53,99.99,,,-99.99,,2013-03-26 08:32:00,
2013-03-26 04:42:00,54.0,37.0,30.06,NNE,17,7.0,15.0,53,99.99,,,-99.99,,2013-03-26 08:42:00,
2013-03-26 04:52:00,53.0,34.0,30.06,NE,41,7.0,14.0,49,99.99,,,-99.99,,2013-03-26 08:52:00,
2013-03-26 05:02:00,54.0,35.0,30.06,North,10,7.0,12.0,49,99.99,,,-99.99,,2013-03-26 09:02:00,
2013-03-26 05:12:00,54.0,35.0,30.06,North,10,7.0,12.0,49,99.99,,,-99.99,,2013-03-26 09:12:00,
2013-03-26 05:22:00,53.0,-99.9,30.08,North,11,7.0,14.0,0,99.99,,,-99.99,,2013-03-26 09:22:00,
2013-03-26 05:33:00,53.0,31.0,30.06,NNE,23,7.0,19.0,43,99.99,,,-99.99,,2013-03-26 09:33:00,
2013-03-26 05:43:00,53.0,31.0,30.06,NNE,23,7.0,19.0,43,99.99,,,-99.99,,2013-03-26 09:43:00,
2013-03-26 05:52:00,52.0,30.0,30.07,NNE,28,8.0,15.0,43,99.99,,,-99.99,,2013-03-26 09:52:00,
2013-03-26 06:03:00,52.0,30.0,30.08,NNW,347,8.0,15.0,42,99.99,,,-99.99,,2013-03-26 10:03:00,
2013-03-26 06:12:00,52.0,30.0,30.08,NNW,347,8.0,15.0,42,99.99,,,-99.99,,2013-03-26 10:12:00,
2013-03-26 06:22:00,52.0,29.0,30.10,NNE,25,8.0,16.0,41,99.99,,,-99.99,,2013-03-26 10:22:00,
2013-03-26 06:32:00,51.0,28.0,30.09,NNE,18,7.0,13.0,40,99.99,,,-99.99,,2013-03-26 10:32:00,
2013-03-26 06:42:00,51.0,28.0,30.09,NNE,18,7.0,13.0,40,99.99,,,-99.99,,2013-03-26 10:42:00,
2013-03-26 06:53:00,51.0,28.0,30.10,NNE,25,5.0,13.0,40,99.99,,,-99.99,,2013-03-26 10:53:00,
2013-03-26 07:03:00,50.0,27.0,30.10,NE,34,6.0,12.0,41,99.99,,,-99.99,,2013-03-26 11:03:00,
2013-03-26 07:12:00,50.0,27.0,30.10,NE,34,6.0,12.0,41,99.99,,,-99.99,,2013-03-26 11:12:00,
2013-03-26 07:22:00,49.0,27.0,30.12,NNE,25,6.0,12.0,42,99.99,,,-99.99,,2013-03-26 11:22:00,
2013-03-26 07:32:00,49.0,27.0,30.11,NNE,23,7.0,15.0,42,99.99,,,-99.99,,2013-03-26 11:32:00,
2013-03-26 07:42:00,49.0,27.0,30.11,NNE,23,7.0,15.0,42,99.99,,,-99.99,,2013-03-26 11:42:00,
2013-03-26 07:52:00,49.0,27.0,30.12,NNE,17,6.0,11.0,43,99.99,,,-99.99,,2013-03-26 11:52:00,
2013-03-26 08:03:00,49.0,27.0,30.12,NNE,17,6.0,11.0,43,99.99,,,-99.99,,2013-03-26 12:03:00,
2013-03-26 08:12:00,48.0,27.0,30.13,NNE,32,7.0,12.0,44,99.99,,,-99.99,,2013-03-26 12:12:00,
2013-03-26 08:22:00,49.0,28.0,30.14,NNE,27,8.0,17.0,44,99.99,,,-99.99,,2013-03-26 12:22:00,
2013-03-26 08:32:00,49.0,27.0,30.14,NNE,14,7.0,14.0,43,99.99,,,-99.99,,2013-03-26 12:32:00,
2013-03-26 08:42:00,49.0,27.0,30.14,NNE,14,7.0,14.0,43,99.99,,,-99.99,,2013-03-26 12:42:00,
2013-03-26 08:52:00,49.0,29.0,30.15,NNE,32,7.0,12.0,46,99.99,,,-99.99,,2013-03-26 12:52:00,
2013-03-26 09:03:00,49.0,29.0,30.16,NNW,328,6.0,11.0,45,99.99,,,-99.99,,2013-03-26 13:03:00,
2013-03-26 09:12:00,49.0,29.0,30.16,NNW,328,6.0,11.0,45,99.99,,,-99.99,,2013-03-26 13:12:00,
2013-03-26 09:22:00,48.0,28.0,30.18,North,3,6.0,10.0,45,99.99,,,-99.99,,2013-03-26 13:22:00,
2013-03-26 09:32:00,49.0,29.0,30.17,NE,34,7.0,15.0,46,99.99,,,-99.99,,2013-03-26 13:32:00,
2013-03-26 09:42:00,49.0,29.0,30.17,NE,34,7.0,15.0,46,99.99,,,-99.99,,2013-03-26 13:42:00,
2013-03-26 09:52:00,49.0,29.0,30.18,NNW,336,7.0,14.0,45,99.99,,,-99.99,,2013-03-26 13:52:00,
2013-03-26 10:02:00,49.0,29.0,30.18,NW,309,5.0,11.0,46,99.99,,,-99.99,,2013-03-26 14:02:00,
2013-03-26 10:12:00,49.0,29.0,30.18,NW,309,5.0,11.0,46,99.99,,,-99.99,,2013-03-26 14:12:00,
2013-03-26 10:22:00,49.0,29.0,30.19,NE,41,7.0,17.0,45,99.99,,,-99.99,,2013-03-26 14:22:00,
2013-03-26 10:32:00,49.0,30.0,30.18,North,11,8.0,14.0,48,99.99,,,-99.99,,2013-03-26 14:32:00,
2013-03-26 10:42:00,49.0,30.0,30.18,North,11,8.0,14.0,48,99.99,,,-99.99,,2013-03-26 14:42:00,
2013-03-26 10:53:00,51.0,31.0,30.18,NNE,25,8.0,13.0,46,99.99,,,-99.99,,2013-03-26 14:53:00,
2013-03-26 11:02:00,52.0,31.0,30.18,NNE,23,6.0,10.0,44,99.99,,,-99.99,,2013-03-26 15:02:00,
2013-03-26 11:12:00,52.0,31.0,30.18,NNE,23,6.0,10.0,44,99.99,,,-99.99,,2013-03-26 15:12:00,
2013-03-26 11:22:00,53.0,29.0,30.19,WNW,298,9.0,17.0,40,99.99,,,-99.99,,2013-03-26 15:22:00,
2013-03-26 11:33:00,53.0,30.0,30.18,NW,315,7.0,16.0,41,99.99,,,-99.99,,2013-03-26 15:33:00,
2013-03-26 11:43:00,53.0,30.0,30.18,NW,315,7.0,16.0,41,99.99,,,-99.99,,2013-03-26 15:43:00,
2013-03-26 11:53:00,54.0,29.0,30.18,WNW,297,10.0,18.0,38,99.99,,,-99.99,,2013-03-26 15:53:00,
2013-03-26 12:03:00,55.0,30.0,30.18,NW,325,10.0,19.0,38,99.99,,,-99.99,,2013-03-26 16:03:00,
2013-03-26 12:13:00,55.0,30.0,30.18,NW,325,10.0,19.0,38,99.99,,,-99.99,,2013-03-26 16:13:00,
2013-03-26 12:22:00,55.0,30.0,30.19,NW,319,11.0,25.0,38,99.99,,,-99.99,,2013-03-26 16:22:00,
2013-03-26 12:32:00,57.0,32.0,30.18,NW,315,8.0,16.0,38,99.99,,,-99.99,,2013-03-26 16:32:00,
2013-03-26 12:42:00,57.0,32.0,30.18,NW,315,8.0,16.0,38,99.99,,,-99.99,,2013-03-26 16:42:00,
2013-03-26 12:54:00,57.0,30.0,30.18,WNW,297,12.0,21.0,36,99.99,,,-99.99,,2013-03-26 16:54:00,
2013-03-26 13:02:00,57.0,30.0,30.17,NNW,340,9.0,21.0,36,99.99,,,-99.99,,2013-03-26 17:02:00,
2013-03-26 13:12:00,57.0,30.0,30.17,NNW,340,9.0,21.0,36,99.99,,,-99.99,,2013-03-26 17:12:00,
2013-03-26 13:23:00,58.0,31.0,30.17,NNW,329,10.0,22.0,35,99.99,,,-99.99,,2013-03-26 17:23:00,
2013-03-26 13:32:00,58.0,28.0,30.17,NW,326,10.0,22.0,31,99.99,,,-99.99,,2013-03-26 17:32:00,
2013-03-26 13:42:00,58.0,28.0,30.17,NW,326,10.0,22.0,31,99.99,,,-99.99,,2013-03-26 17:42:00,
2013-03-26 13:53:00,58.0,23.0,30.16,NW,321,12.0,22.0,26,99.99,,,-99.99,,2013-03-26 17:53:00,
2013-03-26 14:02:00,59.0,20.0,30.16,NNW,335,10.0,20.0,22,99.99,,,-99.99,,2013-03-26 18:02:00,
2013-03-26 14:12:00,59.0,20.0,30.16,NNW,335,10.0,20.0,22,99.99,,,-99.99,,2013-03-26 18:12:00,
2013-03-26 14:23:00,58.0,21.0,30.17,NNW,333,11.0,23.0,24,99.99,,,-99.99,,2013-03-26 18:23:00,
2013-03-26 14:34:00,58.0,28.0,30.16,NNW,330,11.0,21.0,32,99.99,,,-99.99,,2013-03-26 18:34:00,
2013-03-26 14:42:00,58.0,28.0,30.16,NNW,330,11.0,21.0,32,99.99,,,-99.99,,2013-03-26 18:42:00,
2013-03-26 14:53:00,58.0,28.0,30.16,NW,318,13.0,26.0,31,99.99,,,-99.99,,2013-03-26 18:53:00,
2013-03-26 15:03:00,59.0,31.0,30.15,NW,314,12.0,26.0,35,99.99,,,-99.99,,2013-03-26 19:03:00,
2013-03-26 15:12:00,59.0,31.0,30.15,NW,314,12.0,26.0,35,99.99,,,-99.99,,2013-03-26 19:12:00,
2013-03-26 15:22:00,59.0,31.0,30.16,WNW,302,10.0,23.0,34,99.99,,,-99.99,,2013-03-26 19:22:00,
2013-03-26 15:32:00,58.0,26.0,30.15,NW,322,12.0,24.0,29,99.99,,,-99.99,,2013-03-26 19:32:00,
2013-03-26 15:42:00,58.0,26.0,30.15,NW,322,12.0,24.0,29,99.99,,,-99.99,,2013-03-26 19:42:00,
2013-03-26 15:53:00,59.0,27.0,30.15,WNW,295,11.0,23.0,29,99.99,,,-99.99,,2013-03-26 19:53:00,
2013-03-26 16:02:00,59.0,26.0,30.14,NW,314,12.0,23.0,28,99.99,,,-99.99,,2013-03-26 20:02:00,
2013-03-26 16:13:00,59.0,26.0,30.14,NW,314,12.0,23.0,28,99.99,,,-99.99,,2013-03-26 20:13:00,
2013-03-26 16:22:00,59.0,26.0,30.15,NW,323,11.0,22.0,28,99.99,,,-99.99,,2013-03-26 20:22:00,
2013-03-26 16:32:00,58.0,26.0,30.14,NW,307,11.0,23.0,29,99.99,,,-99.99,,2013-03-26 20:32:00,
2013-03-26 16:42:00,58.0,26.0,30.14,NW,307,11.0,23.0,29,99.99,,,-99.99,,2013-03-26 20:42:00,
2013-03-26 16:50:00,57.0,28.0,30.13,WNW,294,14.0,23.0,33,99.99,,,-99.99,,2013-03-26 20:50:00,
2013-03-26 16:52:00,58.0,28.0,30.14,NW,311,10.0,20.0,32,99.99,,,-99.99,,2013-03-26 20:52:00,
2013-03-26 17:02:00,57.0,27.0,30.14,NNW,329,14.0,26.0,32,99.99,,,-99.99,,2013-03-26 21:02:00,
2013-03-26 17:12:00,57.0,27.0,30.14,NNW,329,14.0,26.0,32,99.99,,,-99.99,,2013-03-26 21:12:00,
2013-03-26 17:22:00,57.0,28.0,30.13,WNW,294,14.0,23.0,33,99.99,,,-99.99,,2013-03-26 21:22:00,
2013-03-26 17:33:00,57.0,28.0,30.13,WNW,294,14.0,23.0,33,99.99,,,-99.99,,2013-03-26 21:33:00,
2013-03-26 17:43:00,57.0,28.0,30.13,WNW,294,14.0,23.0,33,99.99,,,-99.99,,2013-03-26 21:43:00,
2013-03-26 19:22:00,55.0,28.0,30.17,NNW,328,10.0,18.0,35,99.99,,,-99.99,,2013-03-26 23:22:00,
2013-03-26 19:32:00,54.0,28.0,30.16,WNW,300,8.0,19.0,36,99.99,,,-99.99,,2013-03-26 23:32:00,
2013-03-26 19:43:00,54.0,28.0,30.16,WNW,300,8.0,19.0,36,99.99,,,-99.99,,2013-03-26 23:43:00,
2013-03-26 19:53:00,54.0,29.0,30.17,WNW,301,8.0,16.0,38,99.99,,,-99.99,,2013-03-26 23:53:00,
2013-03-26 20:02:00,53.0,28.0,30.18,NW,316,7.0,14.0,38,99.99,,,-99.99,,2013-03-27 00:02:00,
2013-03-26 20:12:00,53.0,28.0,30.18,NW,316,7.0,14.0,38,99.99,,,-99.99,,2013-03-27 00:12:00,
2013-03-26 20:22:00,53.0,30.0,30.19,NW,304,7.0,13.0,41,99.99,,,-99.99,,2013-03-27 00:22:00,
2013-03-26 20:32:00,52.0,31.0,30.19,WNW,295,8.0,12.0,44,99.99,,,-99.99,,2013-03-27 00:32:00,
2013-03-26 20:42:00,52.0,31.0,30.19,WNW,295,8.0,12.0,44,99.99,,,-99.99,,2013-03-27 00:42:00,
2013-03-26 20:52:00,52.0,32.0,30.19,WNW,285,6.0,12.0,46,99.99,,,-99.99,,2013-03-27 00:52:00,
2013-03-26 21:02:00,51.0,32.0,30.20,WNW,287,6.0,11.0,48,99.99,,,-99.99,,2013-03-27 01:02:00,
2013-03-26 21:12:00,51.0,32.0,30.20,WNW,287,6.0,11.0,48,99.99,,,-99.99,,2013-03-27 01:12:00,
2013-03-26 21:23:00,51.0,33.0,30.22,WNW,301,5.0,10.0,50,99.99,,,-99.99,,2013-03-27 01:23:00,
2013-03-26 21:33:00,50.0,33.0,30.21,NNW,328,5.0,10.0,52,99.99,,,-99.99,,2013-03-27 01:33:00,
2013-03-26 21:42:00,50.0,33.0,30.21,NNW,328,5.0,10.0,52,99.99,,,-99.99,,2013-03-27 01:42:00,
2013-03-26 21:53:00,50.0,34.0,30.22,NW,323,5.0,9.0,54,99.99,,,-99.99,,2013-03-27 01:53:00,
2013-03-26 22:03:00,50.0,35.0,30.23,NW,322,3.0,9.0,56,99.99,,,-99.99,,2013-03-27 02:03:00,
2013-03-26 22:12:00,50.0,35.0,30.23,NW,322,3.0,9.0,56,99.99,,,-99.99,,2013-03-27 02:12:00,
2013-03-26 22:22:00,49.0,34.0,30.24,NNW,328,6.0,11.0,57,99.99,,,-99.99,,2013-03-27 02:22:00,
2013-03-26 22:32:00,49.0,35.0,30.23,NW,308,5.0,10.0,58,99.99,,,-99.99,,2013-03-27 02:32:00,
2013-03-26 22:42:00,49.0,35.0,30.23,NW,308,5.0,10.0,58,99.99,,,-99.99,,2013-03-27 02:42:00,
2013-03-26 22:53:00,48.0,35.0,30.24,NNW,335,4.0,9.0,60,99.99,,,-99.99,,2013-03-27 02:53:00,
2013-03-26 23:02:00,48.0,35.0,30.24,NNW,329,4.0,9.0,60,99.99,,,-99.99,,2013-03-27 03:02:00,
2013-03-26 23:12:00,48.0,35.0,30.24,NNW,329,4.0,9.0,60,99.99,,,-99.99,,2013-03-27 03:12:00,
2013-03-26 23:22:00,48.0,35.0,30.25,NW,314,3.0,6.0,61,99.99,,,-99.99,,2013-03-27 03:22:00,
2013-03-26 23:33:00,47.0,35.0,30.24,NNW,346,2.0,5.0,62,99.99,,,-99.99,,2013-03-27 03:33:00,
2013-03-26 23:42:00,47.0,35.0,30.24,NNW,346,2.0,5.0,62,99.99,,,-99.99,,2013-03-27 03:42:00,
2013-03-26 23:53:00,47.0,35.0,30.25,North,353,3.0,6.0,63,99.99,,,-99.99,,2013-03-27 03:53:00,